[[{"header":{"parameterUnit":"m.s-1","parameterCategory":1,"la1":30.2991,"la2":30.254,"lo1":-89.0895,"lo2":-89.0444,"dy":0.0017,"dx":0.0017,"nx":28,"ny":28,"refTime":"2025-11-29T09:00:00:Z","depth":0,"parameterNumber":2,"parameterNumberName":"U-component_of_WINDS"},"data":[0,0,0,0,0,0,0,0,0,0,0,0,0,0,0,0,0,0,0,0,0,0,0,0,0,0,0,0,0,0,0,0,0,0,0,0,0,0,0,0,0,0,0,0,0,0,0,0,0,0,0,0,0,0,0,0,0,0,-3.4059,-3.406,0,-3.4179,-3.418,-3.4182,-3.4199,-3.4198,-3.4197,-3.4196,-3.4316,-3.432,-3.4324,0,0,0,0,0,0,0,0,0,0,0,0,0,-3.3843,-3.3846,-3.4059,-3.406,-3.4062,-3.4179,-3.418,-3.4182,-3.4199,-3.4198,-3.4197,-3.4196,-3.4315,-3.432,-3.4325,0,0,0,0,0,0,0,0,0,0,0,0,0,-3.3947,-3.3848,-3.4058,-3.4085,-3.4088,-3.4178,-3.418,-3.4182,-3.42,-3.4198,-3.4196,-3.4195,-3.4313,-3.4319,-3.4325,-3.4397,0,0,-3.4345,-3.4347,0,0,0,0,0,0,0,0,-3.3941,-3.3955,-3.4079,-3.4083,-3.4087,-3.4173,-3.4148,-3.4254,-3.42,-3.4157,-3.4196,-3.4194,-3.4269,-3.4279,-3.4305,-3.4402,-3.4407,-3.4345,-3.4349,-3.4352,-3.4353,0,0,0,0,0,0,0,-3.3934,-3.395,-3.4106,-3.4081,-3.4086,-3.409,-3.4103,-3.4168,-3.4221,-3.4161,-3.4163,-3.4177,-3.4271,-3.4299,-3.4308,-3.4409,-3.4345,-3.4351,-3.4354,-3.4357,-3.457,-3.4572,0,0,0,0,0,0,-3.3922,-3.3943,-3.4102,-3.411,-3.4009,-3.4095,-3.4109,-3.4147,-3.422,-3.423,-3.4178,-3.4177,-3.4289,-3.4301,-3.4312,-3.44,-3.4352,-3.4358,-3.4361,-3.4568,-3.4571,-3.4573,0,0,0,0,0,0,-3.3917,-3.3936,-3.4098,-3.4027,-3.4048,-3.41,-3.4142,-3.415,-3.4178,-3.4233,-3.4242,-3.4197,-3.4288,-3.4303,-3.4376,-3.4404,-3.436,-3.4366,-3.4566,-3.4569,-3.4572,-3.4575,0,0,0,0,0,0,-3.3911,-3.3934,-3.3962,-3.4028,-3.4052,-3.4159,-3.4144,-3.4153,-3.4189,-3.4189,-3.4253,-3.4262,-3.4288,-3.4366,-3.4382,-3.4412,-3.4371,-3.4564,-3.4567,-3.4571,-3.4573,-3.4578,-3.4582,0,0,0,0,0,-3.3903,-3.3958,-3.3964,-3.3983,-3.4088,-3.4161,-3.4175,-3.4204,-3.4191,-3.4219,-3.4255,-3.426,-3.4399,-3.4373,-3.4391,-3.4424,-3.4562,-3.4566,-3.4571,-3.4571,-3.4577,-3.4582,0,0,0,0,0,0,-3.3894,-3.3967,-3.3974,-3.4052,-3.41,-3.4164,-3.42,-3.421,-3.4262,-3.426,-3.4293,-3.4308,-3.4378,-3.4408,-3.4379,-3.4496,-3.4479,-3.4487,-3.4473,-3.448,-3.4484,-3.4474,-3.4376,0,0,0,0,0,-3.3901,-3.3955,-3.4016,-3.4079,-3.4103,-3.4147,-3.418,-3.4199,-3.425,-3.427,-3.4311,-3.4359,-3.4414,-3.4449,-3.4502,-3.4578,-3.4592,-3.461,-3.4614,-3.4618,-3.4624,-3.4665,-3.4673,-3.4587,-3.4587,-3.4587,0,0,-3.3915,-3.3962,-3.3994,-3.4078,-3.4117,-3.4171,-3.4164,-3.4222,-3.4262,-3.4279,-3.4349,-3.4381,-3.4437,-3.4511,-3.4546,-3.4539,-3.4651,-3.4623,-3.4626,-3.463,-3.467,-3.4678,-3.4686,-3.459,-3.4589,-3.4589,0,0,-3.397,-3.4011,-3.4068,-3.4108,-3.4168,-3.4198,-3.4212,-3.4274,-3.4296,-3.4368,-3.4381,-3.4429,-3.4523,-3.4562,-3.4594,-3.4665,-3.4671,-3.4681,-3.4705,-3.4745,-3.4752,-3.4758,-3.4781,-3.4789,-3.4687,-3.4687,-3.4687,0,-3.398,-3.4063,-3.4095,-3.4153,-3.4188,-3.4208,-3.4264,-3.4301,-3.4376,-3.44,-3.4391,-3.4509,-3.4548,-3.4631,-3.4648,-3.4675,-3.469,-3.4673,-3.4748,-3.4755,-3.4761,-3.4784,-3.4793,-3.4688,-3.4688,-3.4688,-3.4688,0,-3.4072,-3.4129,-3.4167,-3.4239,-3.428,-3.4337,-3.4377,-3.4414,-3.443,-3.446,-3.4532,-3.458,-3.4643,-3.4665,-3.468,-3.475,-3.4744,-3.4742,-3.4725,-3.4769,-3.4791,-3.48,-3.4689,-3.4689,-3.4689,-3.4688,0,0,-3.4121,-3.4212,-3.4225,-3.4258,-3.4326,-3.4371,-3.4428,-3.4491,-3.4521,-3.4572,-3.462,-3.47,-3.4698,-3.4735,-3.4755,-3.479,-3.4841,-3.4784,-3.4786,-3.4791,-3.4919,-3.4919,-3.4929,-3.4847,-3.4849,-3.485,-3.4914,0,-3.4182,-3.4285,-3.4317,-3.4403,-3.4456,-3.4475,-3.4525,-3.4572,-3.4602,-3.4651,-3.4684,-3.4739,-3.4733,-3.4755,-3.4792,-3.4827,-3.4867,-3.4823,-3.489,-3.4892,-3.4873,-3.494,-3.494,-3.4998,-3.4923,-3.4924,-3.4926,0,-3.4266,-3.4319,-3.4411,-3.4473,-3.4496,-3.454,-3.46,-3.4647,-3.47,-3.472,-3.4761,-3.4779,-3.4839,-3.482,-3.4902,-3.4872,-3.4902,-3.4923,-3.4926,-3.4932,-3.491,-3.4945,-3.5017,-3.5025,-3.494,-3.4938,-3.4937,0,-3.4291,-3.4386,-3.4453,-3.448,-3.4554,-3.4585,-3.4617,-3.4669,-3.4705,-3.4757,-3.478,-3.4839,-3.487,-3.4915,-3.4947,-3.4931,-3.5026,-3.5011,-3.5042,-3.5041,-3.5059,-3.5057,-3.5135,-3.5082,-3.5082,-3.5082,-3.5082,0,-3.4354,-3.4409,-3.4464,-3.4505,-3.4567,-3.4603,-3.4663,-3.4696,-3.4742,-3.4789,-3.481,-3.4854,-3.4895,-3.4944,-3.497,-3.5033,-3.5048,-3.5064,-3.507,-3.5061,-3.5059,-3.5079,-3.5075,-3.5084,-3.5084,-3.5083,-3.5083,0,-3.4391,-3.4431,-3.4505,-3.4569,-3.4587,-3.4629,-3.4684,-3.4724,-3.4756,-3.4815,-3.4831,-3.488,-3.4939,-3.4976,-3.5051,-3.5068,-3.5137,-3.5143,-3.5119,-3.5121,-3.515,-3.5146,-3.5241,-3.5255,-3.5195,-3.5195,-3.5196,0,-3.4428,-3.447,-3.454,-3.4573,-3.4606,-3.4659,-3.4696,-3.4733,-3.477,-3.4835,-3.4867,-3.4927,-3.4977,-3.5069,-3.5111,-3.5168,-3.5174,-3.5204,-3.5182,-3.5172,-3.5172,-3.5168,-3.5172,-3.5206,-3.5207,-3.5207,-3.5207,0,-3.4488,-3.4506,-3.4558,-3.4617,-3.4661,-3.4709,-3.4757,-3.4783,-3.4829,-3.4869,-3.493,-3.4969,-3.5045,-3.5104,-3.5165,-3.5197,-3.5209,-3.5214,-3.5224,-3.5214,-3.5198,-3.5205,-3.5126,-3.5211,-3.5211,-3.521,-3.521,-3.521,-3.4525,-3.4563,-3.4618,-3.4676,-3.4716,-3.4761,-3.4801,-3.4839,-3.489,-3.4955,-3.4974,-3.5037,-3.509,-3.5173,-3.5207,-3.5256,-3.5252,-3.5267,-3.527,-3.5273,-3.5272,-3.5192,-3.5267,-3.5267,-3.5267,-3.5267,-3.5267,0,-3.4585,-3.4621,-3.4674,-3.4741,-3.4786,-3.4795,-3.4849,-3.4886,-3.4941,-3.499,-3.5039,-3.5108,-3.5166,-3.5213,-3.5272,-3.5302,-3.5309,-3.5316,-3.5313,-3.532,-3.5273,-3.5258,-3.5309,-3.5309,-3.5309,-3.5309,-3.5309,-3.5309,-3.4621,-3.4686,-3.471,-3.4796,-3.4832,-3.4894,-3.4924,-3.4965,-3.5004,-3.508,-3.5129,-3.5159,-3.5207,-3.527,-3.5323,-3.5335,-3.5355,-3.536,-3.5373,-3.5328,-3.5323,-3.5319,-3.5304,-3.5365,-3.5365,-3.5416,-3.5417,-3.5417]},{"header":{"parameterUnit":"m.s-1","parameterCategory":1,"la1":30.2991,"la2":30.254,"lo1":-89.0895,"lo2":-89.0444,"dy":0.0017,"dx":0.0017,"nx":28,"ny":28,"refTime":"2025-11-29T09:00:00:Z","depth":0,"parameterNumber":3,"parameterNumberName":"V-component_of_WINDS"},"data":[0,0,0,0,0,0,0,0,0,0,0,0,0,0,0,0,0,0,0,0,0,0,0,0,0,0,0,0,0,0,0,0,0,0,0,0,0,0,0,0,0,0,0,0,0,0,0,0,0,0,0,0,0,0,0,0,0,0,3.2664,3.2663,0,3.2544,3.2543,3.2541,3.2344,3.2341,3.2337,3.2334,3.2212,3.2212,3.2212,0,0,0,0,0,0,0,0,0,0,0,0,0,3.2728,3.2728,3.2665,3.2663,3.2662,3.2544,3.2543,3.2541,3.2345,3.234,3.2336,3.2332,3.2212,3.2212,3.2212,0,0,0,0,0,0,0,0,0,0,0,0,0,3.2663,3.2727,3.2665,3.2549,3.2538,3.2545,3.2543,3.2541,3.2346,3.234,3.2335,3.233,3.2212,3.2212,3.2212,3.2323,0,0,3.2213,3.2213,0,0,0,0,0,0,0,0,3.2667,3.2661,3.2568,3.2557,3.2545,3.2454,3.252,3.2468,3.2347,3.2419,3.2333,3.2327,3.2297,3.229,3.2279,3.2317,3.2312,3.2213,3.2213,3.2213,3.2213,0,0,0,0,0,0,0,3.2672,3.2665,3.2617,3.2567,3.2553,3.2505,3.249,3.2509,3.239,3.2412,3.2398,3.2386,3.2289,3.228,3.2275,3.231,3.2213,3.2213,3.2213,3.2213,3.2433,3.2439,0,0,0,0,0,0,3.2693,3.267,3.2621,3.2613,3.2594,3.2508,3.2491,3.2488,3.2389,3.2369,3.2391,3.2377,3.2282,3.2275,3.227,3.2392,3.2213,3.2213,3.2214,3.2428,3.2435,3.2441,0,0,0,0,0,0,3.2695,3.269,3.2626,3.2638,3.2626,3.2513,3.2511,3.2489,3.2478,3.2373,3.2351,3.2402,3.2277,3.227,3.2311,3.2385,3.2214,3.2214,3.2421,3.243,3.2438,3.2638,0,0,0,0,0,0,3.2698,3.2692,3.2732,3.264,3.2626,3.2668,3.2516,3.249,3.2479,3.246,3.2378,3.2359,3.2272,3.2312,3.2311,3.2382,3.2214,3.2414,3.2425,3.2435,3.2625,3.2653,3.2677,0,0,0,0,0,3.2701,3.2794,3.2735,3.273,3.2673,3.2673,3.2665,3.2563,3.2486,3.2525,3.2458,3.2361,3.2378,3.2318,3.2315,3.2388,3.2408,3.2422,3.2434,3.2613,3.2647,3.2676,0,0,0,0,0,0,3.2897,3.2779,3.2713,3.2779,3.2738,3.264,3.2686,3.2602,3.2582,3.2565,3.2441,3.2424,3.2482,3.2439,3.2374,3.249,3.2378,3.2391,3.2515,3.2547,3.2573,3.2581,3.2214,0,0,0,0,0,3.2948,3.2957,3.2854,3.2922,3.2905,3.28,3.2796,3.2721,3.2673,3.2655,3.259,3.2548,3.2544,3.2543,3.2533,3.2619,3.2598,3.2668,3.2694,3.2716,3.2728,3.277,3.28,3.2483,3.2483,3.2483,0,0,3.3053,3.299,3.3003,3.296,3.2919,3.2932,3.2786,3.2806,3.2814,3.2658,3.2692,3.2645,3.259,3.2654,3.2679,3.262,3.2812,3.2732,3.2751,3.275,3.2787,3.2817,3.2844,3.2492,3.249,3.2489,0,0,3.3251,3.3205,3.3256,3.3218,3.3158,3.3088,3.3102,3.3017,3.2979,3.3012,3.2896,3.2905,3.29,3.2866,3.2848,3.3037,3.2947,3.3038,3.3173,3.3216,3.3241,3.3263,3.333,3.3355,3.305,3.3051,3.3051,0,3.3389,3.3402,3.3293,3.332,3.3305,3.3165,3.3217,3.3186,3.3127,3.3121,3.3056,3.3048,3.3001,3.3055,3.3102,3.3092,3.3103,3.3045,3.3246,3.3267,3.3285,3.3348,3.3373,3.3062,3.3061,3.306,3.3059,0,3.3575,3.3587,3.3636,3.3582,3.3573,3.3613,3.351,3.3515,3.3442,3.338,3.3417,3.3357,3.3332,3.334,3.327,3.3386,3.3351,3.3269,3.3153,3.3329,3.3385,3.3408,3.3078,3.3074,3.3071,3.3068,0,0,3.3889,3.3776,3.3796,3.377,3.3696,3.3703,3.3738,3.3714,3.372,3.3686,3.3711,3.3712,3.3636,3.3616,3.3541,3.3579,3.3733,3.3491,3.3488,3.3538,3.3857,3.3918,3.3948,3.3675,3.3679,3.3682,3.3862,0,3.407,3.412,3.4025,3.4099,3.4109,3.3978,3.4009,3.3967,3.3911,3.3913,3.3851,3.3853,3.3752,3.374,3.3772,3.3708,3.3795,3.3694,3.3697,3.3699,3.3713,3.3977,3.4041,3.4213,3.3883,3.3887,3.3889,0,3.4286,3.4262,3.4337,3.426,3.426,3.4289,3.4261,3.4264,3.4215,3.4172,3.4152,3.4064,3.4094,3.3986,3.4025,3.3958,3.3955,3.3924,3.3928,3.3923,3.3803,3.3978,3.4266,3.4291,3.3923,3.3921,3.3918,0,3.4506,3.4493,3.4536,3.4519,3.443,3.4453,3.4418,3.4364,3.4356,3.4333,3.4326,3.4307,3.4296,3.4284,3.4194,3.4124,3.4245,3.4129,3.421,3.4213,3.4239,3.4238,3.4529,3.4241,3.4241,3.424,3.424,0,3.4716,3.4767,3.4634,3.4661,3.4715,3.4606,3.4663,3.4614,3.4568,3.4584,3.4471,3.4489,3.437,3.4375,3.4305,3.4349,3.4345,3.4311,3.4292,3.432,3.4325,3.4314,3.4299,3.4247,3.4246,3.4244,3.4243,0,3.4969,3.4882,3.4921,3.4835,3.4814,3.4858,3.4784,3.4806,3.4745,3.4766,3.4765,3.4669,3.4669,3.4579,3.4561,3.4514,3.4588,3.4547,3.4604,3.459,3.4676,3.4669,3.4969,3.5003,3.4696,3.4699,3.4701,0,3.5108,3.5144,3.5062,3.5065,3.5034,3.504,3.5032,3.4928,3.4925,3.4874,3.4903,3.4894,3.4881,3.4889,3.4817,3.4804,3.4761,3.4868,3.4758,3.4786,3.4761,3.4759,3.4763,3.489,3.4894,3.4897,3.4899,0,3.5363,3.5319,3.5311,3.529,3.5284,3.5263,3.5234,3.5243,3.5129,3.5132,3.5131,3.5121,3.5104,3.5097,3.5071,3.5035,3.4949,3.4935,3.4953,3.4981,3.5012,3.4995,3.4665,3.4928,3.4925,3.4923,3.4921,3.492,3.5561,3.5587,3.5535,3.5531,3.5499,3.5475,3.5492,3.5433,3.543,3.5407,3.5347,3.5357,3.531,3.5266,3.5238,3.5245,3.5192,3.5218,3.5224,3.5232,3.5248,3.5013,3.524,3.5239,3.5238,3.5238,3.5237,0,3.5809,3.5769,3.5767,3.5731,3.5729,3.5649,3.5614,3.5618,3.5628,3.5591,3.5582,3.5582,3.5576,3.5506,3.5492,3.5511,3.5471,3.5511,3.5507,3.55,3.5296,3.5282,3.5543,3.5543,3.5543,3.5543,3.5543,3.5543,3.5937,3.5978,3.5928,3.5953,3.5913,3.5921,3.5908,3.5887,3.5857,3.5862,3.5857,3.5811,3.5762,3.5744,3.5735,3.5715,3.5714,3.5767,3.5734,3.5544,3.5514,3.5486,3.5472,3.5768,3.5769,3.5936,3.5938,3.5939]}]]